Location: Minsk
(53.9000°N, 27.5670°E)
Time: 09:18:32
(UTC+03:00)

X-37B - Visible Passes

Search period start: 26 September 2022 00:00
Search period end: 06 October 2022 00:00
Orbit: 330 x 340 km, 45.0° (Epoch: 02 September)

Date Brightness Start Highest point End Pass type
(mag) Time Alt. Az. Time Alt. Az. Time Alt. Az.
26 Sep 3.0 06:25:50 10° SSW 06:27:02 12° SSE 06:28:13 10° SE visible
28 Sep 2.9 05:31:38 11° S 05:32:27 12° SSE 05:33:39 10° SE visible
29 Sep 2.7 05:51:13 11° SSW 05:52:32 14° S 05:54:12 10° SE visible
30 Sep 2.7 06:10:58 10° SW 06:12:38 14° S 06:14:18 10° SSE visible
01 Oct 3.1 04:59:10 12° SSE 04:59:10 12° SSE 04:59:38 10° SE visible
01 Oct 2.8 06:31:33 10° SW 06:32:43 12° SSW 06:33:52 10° S visible
02 Oct 2.8 05:18:48 13° SSE 05:18:48 13° SSE 05:19:44 10° SSE visible
03 Oct 2.8 05:38:29 12° S 05:38:29 12° S 05:39:19 10° S visible
